Location: Unnamed
(47.6578°N, 23.5640°E)
Time: 21:45:08
(UTC+02:00)

ISS - Pass Details

Date: 03 May 2020
Orbit: 417 x 423 km, 51.6° (Epoch: 01 December)

Event Time Altitude Azimuth Distance (km) Brightness Sun altitude
Exits shadow 03:10:48 33° 102° (ESE) 763 -2.4 -22.1°
Drops below altitude 10° 03:13:10 10° 74° (ENE) 1,578 -0.3 -21.9°
Sets 03:15:23 0° 68° (ENE) 2,458 1.0 -21.8°
